Location: Black Creek
(40.9000°S, 175.5500°E)
Time: 19:36:08
(UTC+00:00)

SKYMED 2 - Pass Details

Date: 04 August 2024
Orbit: 621 x 623 km, 97.9° (Epoch: 18 September)

Event Time Altitude Azimuth Distance (km) Brightness Sun altitude
Rises 18:18:13 0° 167° (SSE) 2,943 7.1 -12.0°
Reaches altitude 10° 18:20:27 10° 165° (SSE) 2,029 6.2 -11.6°
Maximum altitude 18:24:52 78° 79° (ENE) 651 3.8 -10.8°
Drops below altitude 10° 18:29:14 10° 351° (N) 2,001 6.2 -10.0°
Sets 18:31:25 0° 349° (N) 2,900 7.1 -9.6°
